Location: Dehesa de la Cepeda
(40.6574°N, 4.3013°W)
Time: 22:10:51
(UTC+00:00)

Vanguard 2 - Visible Passes

Search period start: 28 July 2021 00:00
Search period end: 07 August 2021 00:00
Orbit: 552 x 2937 km, 32.9° (Epoch: 28 July)

Date Brightness Start Highest point End Pass type
(mag) Time Alt. Az. Time Alt. Az. Time Alt. Az.
31 Jul 9.2 04:03:06 10° S 04:04:39 12° SSE 04:06:18 10° SE visible
01 Aug 9.0 04:19:22 10° SSW 04:22:02 17° SSE 04:25:02 10° ESE visible
02 Aug 8.7 04:36:18 10° SSW 04:39:28 22° SSE 04:43:09 10° ESE visible
04 Aug 9.2 03:07:55 12° SE 03:07:55 12° SE 03:08:52 10° SE visible
05 Aug 8.6 03:24:41 17° SSE 03:24:41 17° SSE 03:27:16 10° ESE visible
06 Aug 8.2 03:41:27 21° S 03:42:03 22° SSE 03:45:14 10° ESE visible
